[[{"header":{"parameterUnit":"m.s-1","parameterCategory":1,"la1":30.2991,"la2":30.254,"lo1":-89.0895,"lo2":-89.0444,"dy":0.0017,"dx":0.0017,"nx":28,"ny":28,"refTime":"2023-10-28T09:00:00:Z","depth":0,"parameterNumber":2,"parameterNumberName":"U-component_of_WINDS"},"data":[0,0,0,0,0,0,0,0,0,0,0,0,0,0,0,0,0,0,0,0,0,0,0,0,0,0,0,0,0,0,0,0,0,0,0,0,0,0,0,0,0,0,0,0,0,0,0,0,0,0,0,0,0,0,0,0,0,0,-1.8295,-1.8296,0,-1.8317,-1.8317,-1.8318,-1.8317,-1.8317,-1.8317,-1.8316,-1.8339,-1.834,-1.834,0,0,0,0,0,0,0,0,0,0,0,0,0,-1.8254,-1.8255,-1.8295,-1.8296,-1.8296,-1.8317,-1.8317,-1.8318,-1.8317,-1.8317,-1.8317,-1.8316,-1.8338,-1.834,-1.8341,0,0,0,0,0,0,0,0,0,0,0,0,0,-1.8274,-1.8255,-1.8295,-1.8298,-1.8299,-1.8317,-1.8317,-1.8318,-1.8317,-1.8317,-1.8317,-1.8316,-1.8338,-1.8339,-1.8341,-1.8358,0,0,-1.8345,-1.8345,0,0,0,0,0,0,0,0,-1.8273,-1.8275,-1.8297,-1.8298,-1.8299,-1.8314,-1.8311,-1.8331,-1.8318,-1.831,-1.8316,-1.8316,-1.8331,-1.8333,-1.8338,-1.8359,-1.836,-1.8345,-1.8346,-1.8346,-1.8347,0,0,0,0,0,0,0,-1.8271,-1.8274,-1.8304,-1.8298,-1.8298,-1.8299,-1.8301,-1.8315,-1.8323,-1.8311,-1.8311,-1.8314,-1.8331,-1.8337,-1.8338,-1.836,-1.8345,-1.8346,-1.8347,-1.8347,-1.8397,-1.8398,0,0,0,0,0,0,-1.8269,-1.8273,-1.8303,-1.8305,-1.8284,-1.83,-1.8303,-1.831,-1.8323,-1.8324,-1.8314,-1.8313,-1.8335,-1.8337,-1.8339,-1.836,-1.8346,-1.8347,-1.8348,-1.8397,-1.8397,-1.8398,0,0,0,0,0,0,-1.8268,-1.8272,-1.8302,-1.8289,-1.8293,-1.8301,-1.8309,-1.831,-1.8316,-1.8325,-1.8326,-1.8318,-1.8334,-1.8337,-1.8353,-1.8361,-1.8348,-1.8349,-1.8396,-1.8397,-1.8398,-1.8402,0,0,0,0,0,0,-1.8267,-1.8272,-1.8278,-1.8289,-1.8294,-1.8316,-1.831,-1.8311,-1.8318,-1.8318,-1.8329,-1.8331,-1.8334,-1.8351,-1.8355,-1.8363,-1.835,-1.8395,-1.8397,-1.8398,-1.8401,-1.8403,-1.8405,0,0,0,0,0,-1.8266,-1.8278,-1.8278,-1.8281,-1.8301,-1.8316,-1.8319,-1.8323,-1.8318,-1.8325,-1.8331,-1.833,-1.836,-1.8353,-1.8357,-1.8365,-1.8395,-1.8396,-1.8397,-1.8401,-1.8403,-1.8405,0,0,0,0,0,0,-1.8266,-1.8279,-1.8279,-1.8295,-1.8305,-1.8316,-1.8324,-1.8325,-1.8335,-1.8334,-1.8339,-1.8342,-1.8358,-1.8363,-1.8355,-1.8383,-1.8377,-1.8379,-1.8378,-1.838,-1.8382,-1.838,-1.8351,0,0,0,0,0,-1.8268,-1.8279,-1.829,-1.8303,-1.8308,-1.8315,-1.8322,-1.8324,-1.8334,-1.8338,-1.8345,-1.8355,-1.8367,-1.8374,-1.8385,-1.8403,-1.8406,-1.8411,-1.8412,-1.8414,-1.8415,-1.8426,-1.8428,-1.8402,-1.8402,-1.8402,0,0,-1.8272,-1.8281,-1.8287,-1.8303,-1.8311,-1.8322,-1.8318,-1.833,-1.8339,-1.834,-1.8355,-1.8361,-1.8373,-1.839,-1.8398,-1.8395,-1.8423,-1.8415,-1.8416,-1.8417,-1.8427,-1.843,-1.8432,-1.8403,-1.8403,-1.8403,0,0,-1.8285,-1.8293,-1.8305,-1.8313,-1.8325,-1.833,-1.8333,-1.8345,-1.8349,-1.8365,-1.8366,-1.8377,-1.8397,-1.8405,-1.8412,-1.8431,-1.843,-1.8435,-1.8442,-1.8453,-1.8455,-1.8456,-1.8463,-1.8466,-1.8436,-1.8436,-1.8436,0,-1.8289,-1.8306,-1.8311,-1.8324,-1.8331,-1.8333,-1.8346,-1.8353,-1.8368,-1.8374,-1.8371,-1.8397,-1.8404,-1.8424,-1.8429,-1.8434,-1.8438,-1.8432,-1.8454,-1.8456,-1.8458,-1.8464,-1.8467,-1.8437,-1.8437,-1.8436,-1.8436,0,-1.831,-1.8322,-1.833,-1.8345,-1.8354,-1.8366,-1.8374,-1.8382,-1.8385,-1.8391,-1.8408,-1.8417,-1.8431,-1.8436,-1.8438,-1.8457,-1.8455,-1.8453,-1.8447,-1.846,-1.8466,-1.8469,-1.8437,-1.8437,-1.8437,-1.8437,0,0,-1.8322,-1.8341,-1.8344,-1.8351,-1.8365,-1.8375,-1.8388,-1.8402,-1.8409,-1.842,-1.8431,-1.8449,-1.8448,-1.8456,-1.846,-1.8469,-1.8484,-1.8466,-1.8467,-1.8469,-1.8505,-1.8505,-1.8508,-1.8485,-1.8485,-1.8486,-1.8504,0,-1.8336,-1.8359,-1.8365,-1.8385,-1.8397,-1.84,-1.8412,-1.8423,-1.8429,-1.844,-1.8448,-1.846,-1.8458,-1.8463,-1.8472,-1.848,-1.8491,-1.8479,-1.8495,-1.8496,-1.8491,-1.8511,-1.8512,-1.8528,-1.8506,-1.8507,-1.8507,0,-1.8355,-1.8367,-1.8388,-1.8402,-1.8407,-1.8418,-1.8431,-1.8442,-1.8455,-1.8459,-1.8469,-1.8472,-1.8487,-1.8482,-1.8502,-1.8494,-1.8502,-1.8507,-1.8507,-1.8508,-1.8501,-1.8512,-1.8534,-1.8536,-1.8511,-1.8511,-1.851,0,-1.8362,-1.8383,-1.8398,-1.8405,-1.8421,-1.8429,-1.8436,-1.8448,-1.8457,-1.8469,-1.8475,-1.8489,-1.8497,-1.8508,-1.8515,-1.851,-1.8536,-1.8531,-1.854,-1.8539,-1.8543,-1.8543,-1.8566,-1.855,-1.855,-1.855,-1.855,0,-1.8376,-1.8389,-1.8402,-1.8411,-1.8426,-1.8434,-1.8448,-1.8456,-1.8467,-1.8479,-1.8483,-1.8494,-1.8503,-1.8516,-1.8522,-1.8539,-1.8542,-1.8546,-1.8547,-1.8545,-1.8544,-1.8549,-1.8548,-1.855,-1.855,-1.855,-1.855,0,-1.8385,-1.8394,-1.8411,-1.8427,-1.8431,-1.8441,-1.8454,-1.8464,-1.8471,-1.8486,-1.849,-1.8502,-1.8517,-1.8526,-1.8545,-1.8549,-1.8567,-1.8568,-1.8563,-1.8563,-1.8571,-1.857,-1.8597,-1.8601,-1.8583,-1.8583,-1.8584,0,-1.8394,-1.8404,-1.842,-1.8428,-1.8436,-1.8449,-1.8458,-1.8466,-1.8476,-1.8492,-1.85,-1.8515,-1.8528,-1.8552,-1.8562,-1.8577,-1.8578,-1.8587,-1.858,-1.8578,-1.8578,-1.8577,-1.8578,-1.8587,-1.8587,-1.8587,-1.8588,0,-1.8408,-1.8412,-1.8424,-1.8439,-1.845,-1.8461,-1.8473,-1.848,-1.8491,-1.8501,-1.8517,-1.8526,-1.8546,-1.8562,-1.8578,-1.8586,-1.8589,-1.859,-1.8593,-1.859,-1.8586,-1.8588,-1.8565,-1.8589,-1.8589,-1.8589,-1.8588,-1.8588,-1.8416,-1.8426,-1.8439,-1.8453,-1.8463,-1.8475,-1.8485,-1.8494,-1.8507,-1.8524,-1.8529,-1.8545,-1.8559,-1.8581,-1.859,-1.8603,-1.8602,-1.8606,-1.8606,-1.8607,-1.8607,-1.8585,-1.8606,-1.8606,-1.8606,-1.8606,-1.8606,0,-1.843,-1.8439,-1.8452,-1.8469,-1.8481,-1.8483,-1.8497,-1.8506,-1.852,-1.8533,-1.8546,-1.8564,-1.858,-1.8592,-1.8608,-1.8617,-1.8618,-1.862,-1.8619,-1.8621,-1.8608,-1.8603,-1.8619,-1.8619,-1.8619,-1.8619,-1.8619,-1.8619,-1.8439,-1.8455,-1.8461,-1.8483,-1.8492,-1.8508,-1.8516,-1.8526,-1.8537,-1.8557,-1.857,-1.8578,-1.8591,-1.8608,-1.8623,-1.8626,-1.8632,-1.8633,-1.8637,-1.8624,-1.8622,-1.8621,-1.8617,-1.8635,-1.8635,-1.865,-1.865,-1.865]},{"header":{"parameterUnit":"m.s-1","parameterCategory":1,"la1":30.2991,"la2":30.254,"lo1":-89.0895,"lo2":-89.0444,"dy":0.0017,"dx":0.0017,"nx":28,"ny":28,"refTime":"2023-10-28T09:00:00:Z","depth":0,"parameterNumber":3,"parameterNumberName":"V-component_of_WINDS"},"data":[0,0,0,0,0,0,0,0,0,0,0,0,0,0,0,0,0,0,0,0,0,0,0,0,0,0,0,0,0,0,0,0,0,0,0,0,0,0,0,0,0,0,0,0,0,0,0,0,0,0,0,0,0,0,0,0,0,0,3.0146,3.0144,0,2.9997,2.9996,2.9994,2.9864,2.9862,2.9861,2.986,2.9698,2.9695,2.9692,0,0,0,0,0,0,0,0,0,0,0,0,0,3.031,3.0308,3.0146,3.0144,3.0142,2.9998,2.9996,2.9993,2.9864,2.9862,2.9861,2.9859,2.9699,2.9696,2.9692,0,0,0,0,0,0,0,0,0,0,0,0,0,3.0208,3.0307,3.0146,3.006,3.0051,2.9998,2.9995,2.9993,2.9864,2.9862,2.986,2.9858,2.97,2.9696,2.9692,2.9708,0,0,2.9678,2.9676,0,0,0,0,0,0,0,0,3.0214,3.0202,3.0075,3.0066,3.0056,2.9947,2.9994,2.9897,2.9865,2.9935,2.9859,2.9857,2.9782,2.9771,2.9747,2.9701,2.9694,2.9678,2.9675,2.9673,2.9672,0,0,0,0,0,0,0,3.0221,3.0207,3.0087,3.0073,3.0061,3.0027,3.001,2.9975,2.9872,2.9929,2.9919,2.9904,2.9776,2.9752,2.9743,2.9692,2.9678,2.9674,2.9671,2.967,2.9652,2.9654,0,0,0,0,0,0,3.0242,3.0214,3.0091,3.0082,3.0131,3.0026,3.0007,2.9984,2.9872,2.9854,2.9906,2.9898,2.9761,2.9748,2.9737,2.9749,2.9673,2.9669,2.9667,2.965,2.9653,2.9655,0,0,0,0,0,0,3.0247,3.0233,3.0097,3.0146,3.0126,3.0025,3.0001,2.9982,2.9958,2.9855,2.9835,2.99,2.9758,2.9743,2.9717,2.9741,2.9667,2.9663,2.9648,2.9651,2.9654,2.9774,0,0,0,0,0,0,3.0252,3.0235,3.0242,3.0147,3.0124,3.0083,3.0002,2.9981,2.9952,2.994,2.9845,2.9827,2.9755,2.9725,2.9713,2.9734,2.966,2.9645,2.9649,2.9653,2.9767,2.9781,2.9793,0,0,0,0,0,3.0258,3.0279,3.0243,3.0228,3.0131,3.0085,3.0071,2.9991,2.9954,2.9959,2.9894,2.983,2.9742,2.9723,2.9709,2.9729,2.9643,2.9648,2.9653,2.9761,2.9778,2.9792,0,0,0,0,0,0,3.0375,3.0265,3.0223,3.0215,3.0161,3.0063,3.0066,3.0011,2.9964,2.9955,2.9855,2.9835,2.982,2.9772,2.9753,2.974,2.9684,2.9686,2.9771,2.9786,2.9799,2.9809,2.9656,0,0,0,0,0,3.0401,3.0375,3.0279,3.028,3.0256,3.0167,3.0143,3.0088,3.0026,3.0001,2.9934,2.9874,2.9833,2.9807,2.9764,2.9761,2.9738,2.9768,2.9781,2.9792,2.9794,2.9789,2.9801,2.9671,2.9671,2.9671,0,0,3.0451,3.0388,3.0377,3.0303,3.0254,3.0228,3.0148,3.0122,3.0101,2.9996,2.9968,2.9918,2.9845,2.9832,2.9822,2.979,2.9825,2.9798,2.9808,2.9803,2.9795,2.9807,2.9818,2.9675,2.9674,2.9673,0,0,3.0529,3.048,3.0476,3.0431,3.036,3.0301,3.0301,3.0212,3.0175,3.0148,3.0069,3.0041,2.9973,2.9924,2.989,2.9956,2.9895,2.9945,3.0009,3.0006,3.0016,3.0024,3.0046,3.0056,2.9948,2.9948,2.9948,0,3.06,3.0559,3.048,3.0461,3.043,3.0339,3.0334,3.0292,3.021,3.019,3.0158,3.0071,3.0015,2.999,3.0007,2.9983,2.9977,2.9953,3.0022,3.0029,3.0036,3.0056,3.0064,2.9955,2.9954,2.9953,2.9953,0,3.0649,3.0623,3.0628,3.0555,3.0525,3.0513,3.043,3.0409,3.0358,3.0302,3.0275,3.0206,3.0148,3.0138,3.0085,3.0105,3.0088,3.0041,2.9981,3.0056,3.0073,3.008,2.9964,2.9961,2.9959,2.9958,0,0,3.0791,3.0679,3.0682,3.0648,3.0566,3.0543,3.0527,3.0474,3.0457,3.0405,3.0387,3.0334,3.0291,3.0253,3.0194,3.0192,3.0248,3.0144,3.0141,3.0164,3.0264,3.0299,3.0309,3.0209,3.021,3.0211,3.027,0,3.0854,3.0823,3.0753,3.0742,3.0717,3.0632,3.0618,3.0565,3.0514,3.0483,3.0425,3.0389,3.0335,3.0312,3.0306,3.0242,3.0266,3.0238,3.0189,3.0188,3.0207,3.0318,3.0354,3.0412,3.0276,3.0277,3.0278,0,3.0922,3.0879,3.0867,3.0789,3.0775,3.0764,3.0711,3.0683,3.0622,3.0585,3.0546,3.0483,3.046,3.041,3.0376,3.0358,3.0335,3.0301,3.0302,3.0291,3.0235,3.0308,3.0429,3.0437,3.0288,3.0287,3.0286,0,3.1025,3.0964,3.0949,3.0924,3.0832,3.0826,3.0788,3.0724,3.0698,3.0651,3.0632,3.0583,3.0554,3.0517,3.0442,3.0412,3.0416,3.0359,3.0382,3.0384,3.0383,3.0383,3.05,3.0374,3.0374,3.0374,3.0373,0,3.1101,3.1096,3.0995,3.0985,3.0978,3.0899,3.0893,3.0845,3.0791,3.0769,3.0694,3.0675,3.0579,3.0548,3.049,3.0471,3.0459,3.0426,3.041,3.0431,3.0435,3.0412,3.0405,3.0376,3.0375,3.0375,3.0374,0,3.1212,3.1145,3.1123,3.1041,3.102,3.1018,3.0946,3.0933,3.088,3.0854,3.0843,3.0758,3.0718,3.0642,3.058,3.0541,3.0534,3.0507,3.0555,3.0545,3.0572,3.057,3.0674,3.0683,3.0555,3.0557,3.0558,0,3.1263,3.1258,3.1177,3.1159,3.1125,3.1096,3.107,3.0993,3.0968,3.09,3.0895,3.0851,3.0811,3.0752,3.0683,3.0636,3.0606,3.0647,3.0598,3.062,3.0604,3.0605,3.0603,3.0656,3.0658,3.0659,3.066,0,3.136,3.1329,3.1295,3.1252,3.1224,3.1184,3.114,3.113,3.1041,3.1018,3.0979,3.0949,3.0889,3.0845,3.0789,3.0746,3.0688,3.0678,3.068,3.0699,3.0727,3.0711,3.0582,3.0674,3.0672,3.0671,3.0671,3.067,3.1441,3.1434,3.1376,3.1342,3.1303,3.1265,3.1249,3.1197,3.1164,3.1111,3.1067,3.1032,3.0972,3.0892,3.0853,3.0823,3.0795,3.0799,3.0799,3.0801,3.0809,3.0736,3.0813,3.0812,3.0812,3.0811,3.0811,0,3.1533,3.1493,3.1463,3.1407,3.1381,3.1334,3.1285,3.1264,3.1236,3.1187,3.1151,3.1107,3.1066,3.0996,3.0949,3.0938,3.0911,3.0928,3.0926,3.0917,3.0838,3.084,3.0952,3.0952,3.0952,3.0951,3.0951,3.0951,3.1577,3.1562,3.1524,3.1489,3.1448,3.1416,3.1392,3.1356,3.1317,3.1273,3.124,3.1196,3.1139,3.1087,3.1047,3.1027,3.1012,3.1038,3.101,3.0936,3.0923,3.091,3.0911,3.1036,3.1036,3.1091,3.1092,3.1092]}]]